Location: Illasi
(45.4667°N, 11.1667°E)
Time: 22:29:54
(UTC+00:00)

Daily predictions for brighter satellites

Satellite Brightness Start Highest point End
(mag) Time Altitude Azimuth Time Altitude Azimuth Time Altitude Azimuth
NOSS 3-2 (A) 4.2 17:22:03 10° NW 17:29:25 63° NE 17:37:46 10° SE
Meteor 1-21 4.4 17:31:40 10° NNW 17:37:17 84° W 17:42:53 10° S
Cosmos 2151 Rocket 4.4 17:34:45 10° SSE 17:38:35 29° E 17:42:29 10° NNE
Lacrosse 5 rocket 3.6 17:36:34 10° NW 17:39:37 18° N 17:42:46 10° NE
Cosmos 1975 Rocket 3.1 17:36:15 10° N 17:40:35 84° W 17:44:54 10° S
HJ-1C 4.2 17:41:06 10° SE 17:44:02 30° ENE 17:46:59 10° N
COSMO-SKYMED 1 3.3 17:46:00 10° N 17:50:17 60° WNW 17:54:34 10° SSW
Shenzhou-11 Module 3.5 17:49:50 10° S 17:50:44 12° SSE 17:51:33 10° SE
Ariane Rocket 4.1 17:48:36 10° ESE 17:52:37 24° ENE 17:56:38 10° N
H-2A R/B 2.2 17:48:32 10° SE 17:53:19 50° ENE 17:58:18 10° N
Nadezhda 4 Rocket 4.3 17:47:32 10° N 17:53:23 44° ENE 17:59:11 10° SSE
SJ 16-02 4.3 17:52:40 10° W 17:55:20 16° NW 17:57:59 10° NNW
Exosat Rocket 4.2 17:52:37 10° SSE 17:57:29 33° ESE 18:01:56 10° NE
Cosmos 2263 Rocket 3.9 17:53:30 10° WSW 17:58:35 35° NW 18:03:43 10° NNE
USA 116 3.6 17:56:51 10° NNE 18:00:32 66° ESE 18:04:41 10° S
Cosmos 1939 Rocket 4.4 17:57:29 10° S 18:01:24 41° W 18:05:21 10° NNW
COSMOS 2406 4.5 17:57:51 10° N 18:02:22 24° NE 18:05:50 14° E
Cosmos 1844 Rocket 2.7 17:57:20 10° S 18:02:48 63° ESE 18:08:20 10° NNE
Cosmos 1072 Rocket 4.5 17:56:40 10° S 18:02:55 78° E 18:09:18 10° N
Cosmos 372 Rocket 4.3 17:59:27 10° SSW 18:04:41 73° WNW 18:09:55 10° NNE
Cosmos 1707 2.9 18:01:52 10° NNW 18:05:42 77° W 18:09:31 10° S
Cosmos 1626 3.9 18:04:53 10° NNE 18:07:04 15° ENE 18:07:28 15° ENE
Cosmos 2278 Rocket 4.1 18:10:00 10° ENE 18:10:00 10° ENE 18:10:08 10° ENE
NOSS 3-2 (C) 4.1 18:00:14 10° NW 18:07:42 69° NE 18:16:08 10° SE
CZ-2C R/B 3.6 18:06:53 10° SW 18:07:55 11° SSW 18:08:56 10° S
Cosmos 1844 3.7 18:04:42 10° S 18:10:16 58° ESE 18:15:48 10° NNE
Cosmos 2034 Rocket 4.1 18:04:13 10° S 18:10:26 59° E 18:16:39 10° NNE
NOSS 3-4 (A) 3.9 18:06:30 10° S 18:11:46 35° ESE 18:17:18 10° NE
ISS -2.4 18:08:43 10° W 18:11:52 35° NNW 18:14:49 11° NE
NOSS 3-4 (C) 3.9 18:06:38 10° S 18:11:53 35° ESE 18:17:23 10° NE
USA 186 2.9 18:11:04 19° ESE 18:12:24 26° ENE 18:15:13 10° NNE
Meteor 2-5 Rocket 4.4 18:08:22 10° N 18:13:34 35° ENE 18:18:15 13° SE
Meteor 1-12 Rocket 4.3 18:07:58 10° S 18:13:52 90° W 18:19:42 10° N
Lacrosse 4 Rocket 3.6 18:14:34 10° NNE 18:15:18 10° NE 18:16:02 10° NE
Cosmos 1300 Rocket 3.7 18:14:47 10° SSW 18:19:12 78° W 18:23:40 10° N
Okean 1 Rocket 3.5 18:18:16 10° SSE 18:22:26 38° E 18:26:37 10° NNE
Cosmos 2298 Rocket 4.3 18:20:39 10° SSW 18:25:58 71° WNW 18:31:19 10° NNE
Resurs 01 Rocket 3.4 18:25:52 15° ENE 18:26:01 15° ENE 18:28:28 10° NNE
CENTAUR R/B 3.2 18:18:43 10° NW 18:26:49 80° NE 18:34:46 14° SE
Cosmos 1833 Rocket 3.8 18:23:13 10° N 18:27:57 27° NE 18:30:12 21° E
CSL-04 Rocket 4.1 18:26:00 10° S 18:31:25 67° WSW 18:36:56 10° NNW
Cosmos 1766 3.6 18:29:45 10° SSE 18:33:26 40° E 18:37:10 10° NNE
Okean 2 Rocket 3.9 18:29:24 10° SSW 18:33:47 54° WNW 18:38:11 10° N
ATLAS 2AS CENTAUR R/B 3.2 18:26:37 10° S 18:34:11 52° ESE 18:41:46 10° NE
YAOGAN 1 4.2 18:30:12 10° SSW 18:34:11 36° W 18:38:12 10° NNW
Cosmos 1025 Rocket 3.8 18:30:47 10° NNW 18:35:06 56° W 18:39:24 10° S
Cosmos 1634 Rocket 4.3 18:32:29 10° SSE 18:38:13 43° E 18:44:02 10° NNE
ATLAS 3B R/B 3.3 18:32:33 10° NNW 18:38:58 41° NE 18:42:35 24° E
SPOT 3 Rocket 4.4 18:40:10 27° E 18:41:26 30° ENE 18:45:53 10° N
Abrixas rocket 1.6 18:39:06 10° WNW 18:41:57 80° SSW 18:42:11 70° SE
CREW DRAGON DEMO-1 DEB 2.6 18:40:51 10° WNW 18:43:54 84° SSW 18:44:16 65° SE
Cosmos 1536 Rocket 4.1 18:40:30 10° NNW 18:44:54 60° W 18:49:18 10° S
Cosmos 1125 Rocket 3.7 18:41:17 10° SSW 18:46:35 76° WNW 18:51:56 10° NNE
EP 2 4.4 18:45:00 10° SW 18:47:59 86° SE 18:48:34 54° NE
Resurs 1-3 4.3 18:48:54 33° ENE 18:49:11 33° ENE 18:53:08 10° N
SJ-6B 2.7 18:48:32 45° ESE 18:49:21 58° ENE 18:53:05 10° N
Cosmos 1892 Rocket 4.3 18:47:45 10° N 18:51:24 32° ENE 18:51:24 32° ENE
CZ-4 R/B 4.2 18:48:53 10° SW 18:51:58 20° W 18:55:01 10° NW
Cosmos 2195 Rocket 4.4 18:49:03 10° N 18:55:18 72° E 19:00:07 17° SSE
Cosmos 1627 Rocket 4.5 18:50:31 10° N 18:56:55 67° E 19:01:24 21° SSE
Cosmos 1674 3.2 18:53:28 10° NNW 18:57:16 59° W 19:00:17 15° S
Cosmos 2285 Rocket 4.0 18:50:58 10° SSW 18:57:16 83° WNW 19:03:41 10° NNE
Cosmos 2026 Rocket 4.0 18:51:49 10° N 18:58:10 65° ENE 19:02:16 23° SSE
Cosmos 1092 Rocket 3.9 18:52:09 10° N 18:58:22 84° E 19:04:17 12° S
FREGAT/IRIS 4.3 19:04:41 23° NNW 19:04:41 23° NNW 19:05:49 10° NNW
MOS 1 Rocket 4.2 18:59:05 10° N 19:03:16 45° WNW 19:07:20 10° SW
Cosmos 1428 Rocket 4.4 19:00:28 10° N 19:06:44 71° E 19:10:06 29° SSE
TSX-5 3.9 19:04:45 10° SSW 19:08:34 85° WNW 19:13:30 10° NNE
ARGOS 4.0 19:04:15 10° S 19:09:24 48° W 19:14:38 10° NNW
CZ-2C R/B 2.7 19:08:01 10° NNE 19:13:38 88° WNW 19:19:16 10° SSW
Cosmos 1340 Rocket 3.5 19:15:11 41° NNE 19:15:11 41° NNE 19:17:56 10° NNE
Cosmos 2279 Rocket 4.1 19:12:59 40° SE 19:14:44 52° E 19:20:46 10° NNE
Cosmos 1733 3.4 19:13:48 29° SSW 19:15:39 70° W 19:19:28 10° N
MOS 1 4.3 19:13:05 24° S 19:16:42 79° WSW 19:22:27 10° NNW
Lacrosse 5 rocket 3.2 19:16:30 10° NW 19:20:06 23° NNE 19:20:43 23° NNE
Cosmos 2082 Rocket 2.8 19:15:57 10° NNW 19:21:09 37° NE 19:21:17 37° ENE
Cosmos 2098 Rocket 4.4 19:15:09 10° N 19:21:19 40° ENE 19:21:19 40° ENE
DMSP B5D2-2 4.1 19:18:08 10° NNE 19:23:28 84° WNW 19:28:44 10° SSW
BREEZE-M DEB (TANK) 4.3 19:20:21 10° W 19:24:02 42° SSW 19:27:36 28° SSE
BREEZE-M R/B 3.6 19:15:48 10° WSW 19:24:07 64° NNW 19:24:25 60° NNE
OBJECT-B 2.7 19:28:48 27° NNW 19:28:48 27° NNW 19:30:25 10° NNW
Cosmos 2142 Rocket 4.3 19:24:37 25° S 19:28:25 76° E 19:34:38 10° NNE
Ariane Rocket 3.8 19:28:06 21° SSW 19:31:15 49° W 19:36:12 10° NNW
H-2A R/B 4.3 19:29:14 10° SW 19:33:04 22° W 19:36:59 10° NW
Milstar 3 Cent rocket 4.3 19:30:05 10° SW 19:32:39 14° SSW 19:32:39 14° SSW
USA 234 4.4 19:38:14 26° S 19:38:14 26° S 19:41:15 10° SSW
Terra 4.3 19:42:51 11° NNE 19:42:51 11° NNE 19:43:03 10° NNE
Cosmos 1626 3.5 19:39:02 10° NNW 19:42:02 37° WNW 19:42:02 37° WNW
Okean 1-7 Rocket 4.2 19:38:24 10° N 19:41:51 50° N 19:41:51 50° N
USA 186 4.4 19:42:34 17° WSW 19:43:08 18° W 19:45:26 10° NW
COSMOS 2406 3.3 19:41:33 10° NNW 19:47:11 67° WSW 19:47:56 60° SSW
ISS -1.1 19:46:17 10° NW 19:47:46 20° NW 19:47:46 20° NW
Cosmos 2278 Rocket 2.3 19:44:58 10° SSW 19:51:32 65° NNE 19:56:21 10° NNE
Lacrosse 4 Rocket 3.0 19:50:45 10° NNW 19:52:52 29° NNW 19:52:52 29° NNW
Cosmos 909 Rocket 4.1 19:53:37 10° NNW 19:59:55 66° NE 19:59:55 66° NE
Cosmos 2266 Rocket 4.3 19:55:44 10° N 20:00:33 52° NNE 20:00:33 52° NNE
Resurs 01 Rocket 2.8 20:03:26 40° NNW 20:03:26 40° NNW 20:06:25 10° NNW
NOSS 3-4 (A) 4.2 19:56:40 10° WSW 20:02:25 49° NW 20:08:37 10° NNE
NOSS 3-4 (C) 4.2 19:56:46 10° WSW 20:02:31 50° NW 20:08:43 10° NNE
Meteor 2-19 Rocket 4.4 19:57:30 10° N 20:03:37 79° W 20:03:47 78° WSW
Cosmos 1833 Rocket 3.1 20:06:42 10° NNW 20:11:54 56° W 20:11:54 56° W
Cosmos 2251 Rocket 4.2 20:09:45 10° NNW 20:13:44 51° NNW 20:13:44 51° NNW
ATLAS 2AS CENTAUR R/B 3.8 20:17:39 10° WSW 20:25:20 49° NW 20:32:55 10° NNE
ATLAS 3B R/B 3.1 20:23:12 10° NW 20:29:50 56° WSW 20:29:50 56° WSW
Lacrosse 5 rocket 4.4 20:55:27 10° NW 20:56:20 16° NW 20:56:20 16° NW
Cosmos 2082 Rocket 3.9 21:00:05 10° NW 21:03:08 28° WNW 21:03:08 28° WNW
